This is the latest recevied weather packets stored in our database for station/object N4DBJ. If no packets are shown the sender has not sent any weather packets the latest 10 day(s).
| Time | Temp. | Humidity | Pressure | Rain* | Wind** | Luminosity | Snow |
|---|---|---|---|---|---|---|---|
| 1777212863 | 21.11° C | 78% | 1011.4 hPa | 0 mm | - | 425 W/m² | - |
| 1777212561 | 20.56° C | 79% | 1011.4 hPa | 0 mm | - | 551 W/m² | - |
| 1777212259 | 20° C | 83% | 1011.6 hPa | 0 mm | - | 537 W/m² | - |
| 1777211955 | 18.89° C | 85% | 1011.6 hPa | 0 mm | - | 477 W/m² | - |
| 1777211655 | 17.78° C | 86% | 1011.5 hPa | 0 mm | - | 314 W/m² | - |
| 1777211351 | 16.67° C | 96% | 1011.7 hPa | 0 mm | - | 442 W/m² | - |
| 1777211046 | 16.11° C | 99% | 1011.5 hPa | 0 mm | - | 363 W/m² | - |
| 1777210743 | 15.56° C | 99% | 1011.5 hPa | 0 mm | - | 382 W/m² | - |
| 1777210437 | 15.56° C | 99% | 1011.1 hPa | 0 mm | - | 333 W/m² | - |
| 1777210134 | 14.44° C | 99% | 1011.3 hPa | 0 mm | - | 67 W/m² | - |
| 1777209830 | 14.44° C | 99% | 1011.4 hPa | 0 mm | - | 75 W/m² | - |
| 1777209525 | 14.44° C | 99% | 1011.3 hPa | 0 mm | - | 65 W/m² | - |
| 1777209221 | 13.89° C | 99% | 1011.4 hPa | 0 mm | - | 70 W/m² | - |
| 1777208919 | 13.89° C | 99% | 1011.4 hPa | 0 mm | - | 78 W/m² | - |
| 1777208614 | 13.33° C | 99% | 1011.4 hPa | 0 mm | - | 61 W/m² | - |
| 1777208311 | 13.33° C | 99% | 1011.4 hPa | 0 mm | - | 58 W/m² | - |
| 1777208007 | 12.78° C | 99% | 1011.3 hPa | 0 mm | - | 54 W/m² | - |
| 1777207697 | 12.78° C | 99% | 1011.2 hPa | 0 mm | - | 51 W/m² | - |
| 1777207392 | 12.22° C | 99% | 1011.2 hPa | 0 mm | - | 49 W/m² | - |
| 1777207092 | 11.67° C | 99% | 1011.1 hPa | 0 mm | - | 47 W/m² | - |
| 1777206788 | 11.11° C | 99% | 1010.8 hPa | 0 mm | - | 45 W/m² | - |
| 1777206488 | 10.56° C | 99% | 1011.1 hPa | 0 mm | - | 43 W/m² | - |
| 1777206183 | 10.56° C | 99% | 1011 hPa | 0 mm | - | 42 W/m² | - |
| 1777205879 | 10° C | 99% | 1011.2 hPa | 0 mm | - | 39 W/m² | - |
| 1777205576 | 10° C | 99% | 1011.1 hPa | 0 mm | - | 37 W/m² | - |
* Rain latest hour (hover to see other rain measurements)
** Current wind speed in m/s (hover to see current wind gust speed)